Cloud_Cover
93 98 100 100 100 100 100 100 100 100 100 100 100 100 100 100 100 100 100 100 100 100
23 75 100 100 100 100 100 100 100 100 100 100 100 100 100 100 100 100 100 100 100 100
93 69 100 100 100 100 100 100 100 100 100 100 100 100 100 100 100 100 100 100 100 100
79 60 100 98 100 100 100 100 100 100 100 100 100 100 100 100 100 100 100 100 100 100
81 53 100 100 100 100 100 100 100 100 100 100 100 100 100 100 100 100 100 100 100 100
100 57 86 100 100 100 100 100 100 100 100 100 100 100 100 100 100 100 100 100 100 100
87 55 29 33 100 100 100 100 100 100 100 100 100 100 100 100 100 100 100 100 100 100
9 2 0 16 22 100 100 100 100 100 100 100 100 100 100 100 100 100 100 100 100 100
51 67 0 0 2 2 7 99 100 100 100 100 100 100 100 100 100 100 100 100 100 100
2 58 15 4 42 73 21 51 86 100 100 100 100 100 100 100 100 100 100 100 100 100
24 11 18 75 100 100 92 80 100 100 100 100 100 100 100 100 100 100 100 100 100 100
100 98 98 99 100 100 100 100 100 100 100 100 100 100 100 100 100 100 100 100 100 100
100 100 100 100 100 100 100 100 100 100 100 100 100 100 100 100 100 100 100 100 100 100
100 100 100 100 100 100 100 100 100 100 100 100 100 100 100 100 100 100 100 100 100 100